| time (UTC) | temp F | wind direction | speed MPH | gust MPH | rain 1hr in | rain 24hr in | rain mn in | humidity % | barometer mb |
| 20260508121703 | 49 | 45 | 0.0 | 0.0 | 0.00 | 0.00 | 0.00 | 90 | 1017.4 |
| 20260508121203 | 48 | 45 | 0.0 | 0.0 | 0.00 | 0.00 | 0.00 | 91 | 1017.3 |
| 20260508120703 | 47 | 45 | 0.0 | 0.0 | 0.00 | 0.00 | 0.00 | 92 | 1017.3 |
| 20260508120203 | 46 | 45 | 0.0 | 0.0 | 0.00 | 0.00 | 0.00 | 94 | 1017.3 |
| 20260508114703 | 43 | 45 | 0.0 | 0.0 | 0.00 | 0.00 | 0.00 | 97 | 1017.3 |
| 20260508114203 | 42 | 45 | 0.0 | 0.0 | 0.00 | 0.00 | 0.00 | 98 | 1017.3 |
| 20260508113703 | 41 | 45 | 0.0 | 0.0 | 0.00 | 0.00 | 0.00 | 98 | 1017.3 |
| 20260508113203 | 40 | 45 | 0.0 | 0.0 | 0.00 | 0.00 | 0.00 | 98 | 1017.3 |
| 20260508111703 | 38 | 45 | 0.0 | 0.0 | 0.00 | 0.00 | 0.00 | 98 | 1017.1 |
| 20260508111203 | 38 | 45 | 0.0 | 0.0 | 0.00 | 0.00 | 0.00 | 98 | 1017.0 |
| 20260508110703 | 37 | 45 | 0.0 | 0.0 | 0.00 | 0.00 | 0.00 | 98 | 1017.0 |
| 20260508110203 | 37 | 45 | 0.0 | 0.0 | 0.00 | 0.00 | 0.00 | 98 | 1017.0 |
| 20260508104703 | 37 | 45 | 0.0 | 0.0 | 0.00 | 0.00 | 0.00 | 98 | 1016.9 |
| 20260508104204 | 37 | 45 | 0.0 | 0.0 | 0.00 | 0.00 | 0.00 | 98 | 1016.9 |
| 20260508103703 | 37 | 45 | 0.0 | 0.0 | 0.00 | 0.00 | 0.00 | 98 | 1016.9 |
| 20260508101704 | 37 | 45 | 0.0 | 0.0 | 0.00 | 0.00 | 0.00 | 98 | 1016.7 |
| 20260508100703 | 37 | 45 | 0.0 | 0.0 | 0.00 | 0.00 | 0.00 | 98 | 1016.6 |
| 20260508100203 | 37 | 45 | 0.0 | 0.0 | 0.00 | 0.00 | 0.00 | 98 | 1016.6 |
| 20260508094702 | 37 | 45 | 0.0 | 0.0 | 0.00 | 0.00 | 0.00 | 97 | 1016.5 |
| 20260508094203 | 37 | 45 | 0.0 | 0.0 | 0.00 | 0.00 | 0.00 | 97 | 1016.4 |
| 20260508093704 | 37 | 45 | 0.0 | 0.0 | 0.00 | 0.00 | 0.00 | 97 | 1016.4 |
| 20260508093204 | 37 | 45 | 0.0 | 0.0 | 0.00 | 0.00 | 0.00 | 97 | 1016.5 |
| 20260508091703 | 38 | 45 | 0.0 | 0.0 | 0.00 | 0.00 | 0.00 | 97 | 1016.5 |
| 20260508091204 | 38 | 45 | 0.0 | 0.0 | 0.00 | 0.00 | 0.00 | 97 | 1016.5 |
| 20260508090703 | 38 | 45 | 0.0 | 0.0 | 0.00 | 0.00 | 0.00 | 98 | 1016.4 |
| 20260508090203 | 38 | 45 | 0.0 | 0.0 | 0.00 | 0.00 | 0.00 | 97 | 1016.3 |
| 20260508084703 | 38 | 45 | 0.0 | 0.0 | 0.00 | 0.00 | 0.00 | 98 | 1016.3 |
| 20260508084203 | 38 | 45 | 0.0 | 0.0 | 0.00 | 0.00 | 0.00 | 97 | 1016.2 |
| 20260508083703 | 38 | 45 | 0.0 | 0.0 | 0.00 | 0.00 | 0.00 | 97 | 1016.2 |
| 20260508083204 | 38 | 45 | 0.0 | 0.0 | 0.00 | 0.00 | 0.00 | 97 | 1016.3 |
| 20260508081703 | 39 | 45 | 0.0 | 1.0 | 0.00 | 0.00 | 0.00 | 97 | 1016.2 |
| 20260508081203 | 38 | 47 | 0.0 | 1.0 | 0.00 | 0.00 | 0.00 | 97 | 1016.1 |
| 20260508080703 | 39 | 48 | 0.0 | 1.0 | 0.00 | 0.00 | 0.00 | 97 | 1016.1 |
| 20260508080203 | 39 | 38 | 0.0 | 0.0 | 0.00 | 0.00 | 0.00 | 97 | 1016.2 |
| 20260508074703 | 39 | 47 | 0.0 | 0.0 | 0.00 | 0.00 | 0.00 | 97 | 1016.0 |
| 20260508073704 | 39 | 47 | 0.0 | 0.0 | 0.00 | 0.00 | 0.00 | 97 | 1016.0 |
| 20260508073203 | 39 | 47 | 0.0 | 0.0 | 0.00 | 0.00 | 0.00 | 97 | 1016.0 |
| 20260508071704 | 39 | 47 | 0.0 | 2.0 | 0.00 | 0.00 | 0.00 | 97 | 1016.1 |
| 20260508070703 | 40 | 39 | 1.0 | 2.0 | 0.00 | 0.00 | 0.00 | 97 | 1016.1 |
| 20260508070203 | 40 | 40 | 1.0 | 2.0 | 0.00 | 0.00 | 0.00 | 97 | 1016.0 |
| 20260508064704 | 40 | 296 | 0.0 | 0.0 | 0.00 | 0.00 | 0.00 | 97 | 1016.1 |
| 20260508064203 | 40 | 296 | 0.0 | 0.0 | 0.00 | 0.00 | 0.00 | 96 | 1016.1 |
| 20260508063703 | 40 | 296 | 0.0 | 0.0 | 0.00 | 0.00 | 0.00 | 96 | 1016.1 |
| 20260508063203 | 40 | 296 | 0.0 | 0.0 | 0.00 | 0.00 | 0.00 | 96 | 1016.1 |
| 20260508061203 | 40 | 296 | 0.0 | 0.0 | 0.00 | 0.00 | 0.00 | 96 | 1016.3 |
| 20260508060703 | 40 | 296 | 0.0 | 0.0 | 0.00 | 0.00 | 0.00 | 96 | 1016.3 |
| 20260508060203 | 40 | 296 | 0.0 | 0.0 | 0.00 | 0.00 | 0.00 | 96 | 1016.3 |
| 20260508054703 | 41 | 296 | 0.0 | 0.0 | 0.00 | 0.00 | 0.00 | 96 | 1016.1 |
| 20260508053703 | 41 | 296 | 0.0 | 0.0 | 0.00 | 0.00 | 0.00 | 96 | 1016.1 |
| 20260508051704 | 41 | 296 | 0.0 | 0.0 | 0.00 | 0.00 | 0.00 | 96 | 1016.1 |
| 20260508051204 | 42 | 296 | 0.0 | 0.0 | 0.00 | 0.00 | 0.00 | 96 | 1016.1 |
| 20260508050703 | 42 | 296 | 0.0 | 0.0 | 0.00 | 0.00 | 0.00 | 95 | 1016.1 |
| 20260508050203 | 42 | 296 | 0.0 | 0.0 | 0.00 | 0.00 | 0.00 | 96 | 1016.3 |
| 20260508044203 | 42 | 296 | 0.0 | 0.0 | 0.00 | 0.00 | 0.00 | 96 | 1016.2 |
| 20260508043203 | 42 | 296 | 0.0 | 0.0 | 0.00 | 0.00 | 0.00 | 95 | 1016.1 |
| 20260508041203 | 42 | 296 | 0.0 | 0.0 | 0.00 | 0.00 | 0.00 | 92 | 1016.1 |
| 20260508040203 | 43 | 296 | 0.0 | 0.0 | 0.00 | 0.00 | 0.00 | 91 | 1016.0 |
| 20260508034203 | 43 | 296 | 0.0 | 0.0 | 0.00 | 0.00 | 0.00 | 89 | 1016.1 |
| 20260508033703 | 43 | 296 | 0.0 | 0.0 | 0.00 | 0.00 | 0.00 | 88 | 1016.0 |
| 20260508033203 | 44 | 296 | 0.0 | 0.0 | 0.00 | 0.00 | 0.00 | 88 | 1016.0 |
| 20260508031703 | 45 | 296 | 0.0 | 0.0 | 0.00 | 0.00 | 0.00 | 87 | 1016.0 |
| 20260508030704 | 45 | 296 | 0.0 | 0.0 | 0.00 | 0.00 | 0.00 | 86 | 1015.9 |
| 20260508030203 | 45 | 296 | 0.0 | 0.0 | 0.00 | 0.00 | 0.00 | 86 | 1015.9 |
| 20260508024703 | 46 | 296 | 0.0 | 0.0 | 0.00 | 0.00 | 0.00 | 84 | 1015.7 |
| 20260508024204 | 46 | 296 | 0.0 | 0.0 | 0.00 | 0.00 | 0.00 | 84 | 1015.6 |
| 20260508023704 | 46 | 296 | 0.0 | 0.0 | 0.00 | 0.00 | 0.00 | 83 | 1015.5 |
| 20260508023203 | 46 | 296 | 0.0 | 0.0 | 0.00 | 0.00 | 0.00 | 82 | 1015.5 |
| 20260508021703 | 47 | 296 | 0.0 | 0.0 | 0.00 | 0.00 | 0.00 | 79 | 1015.3 |
| 20260508021203 | 48 | 296 | 0.0 | 0.0 | 0.00 | 0.00 | 0.00 | 79 | 1015.2 |
| 20260508020704 | 48 | 296 | 0.0 | 0.0 | 0.00 | 0.00 | 0.00 | 78 | 1015.1 |
| 20260508020203 | 48 | 296 | 0.0 | 0.0 | 0.00 | 0.00 | 0.00 | 76 | 1015.1 |
| 20260508013703 | 50 | 296 | 0.0 | 0.0 | 0.00 | 0.00 | 0.00 | 72 | 1014.7 |
| 20260508013203 | 50 | 296 | 0.0 | 0.0 | 0.00 | 0.00 | 0.00 | 71 | 1014.7 |
| 20260508011703 | 52 | 296 | 0.0 | 0.0 | 0.00 | 0.00 | 0.00 | 67 | 1014.4 |
| 20260508011203 | 52 | 296 | 0.0 | 0.0 | 0.00 | 0.00 | 0.00 | 66 | 1014.3 |
| 20260508010703 | 53 | 296 | 0.0 | 0.0 | 0.00 | 0.00 | 0.00 | 66 | 1014.3 |
| 20260508010203 | 54 | 296 | 0.0 | 0.0 | 0.00 | 0.00 | 0.00 | 64 | 1014.3 |
| 20260508004703 | 56 | 296 | 0.0 | 0.0 | 0.00 | 0.00 | 0.00 | 57 | 1014.1 |
| 20260508004204 | 58 | 296 | 0.0 | 3.0 | 0.00 | 0.00 | 0.00 | 52 | 1014.1 |
| 20260508003703 | 58 | 296 | 0.0 | 5.0 | 0.00 | 0.00 | 0.00 | 50 | 1014.1 |
| 20260508003203 | 59 | 312 | 1.0 | 5.0 | 0.00 | 0.00 | 0.00 | 47 | 1014.0 |
| 20260508001703 | 61 | 337 | 4.0 | 8.0 | 0.00 | 0.00 | 0.00 | 42 | 1014.0 |
| 20260508001203 | 62 | 307 | 4.0 | 8.0 | 0.00 | 0.00 | 0.00 | 42 | 1013.8 |
| 20260507234703 | 64 | 305 | 5.0 | 12.0 | 0.00 | 0.00 | 0.00 | 38 | 1013.5 |
| 20260507234203 | 65 | 309 | 3.0 | 12.0 | 0.00 | 0.00 | 0.00 | 39 | 1013.5 |
| 20260507233204 | 65 | 315 | 5.0 | 9.0 | 0.00 | 0.00 | 0.00 | 37 | 1013.3 |
| 20260507231203 | 66 | 326 | 5.0 | 13.0 | 0.00 | 0.00 | 0.00 | 39 | 1013.2 |
| 20260507230703 | 66 | 296 | 7.0 | 13.0 | 0.00 | 0.00 | 0.00 | 37 | 1013.2 |
| 20260507224704 | 68 | 287 | 7.0 | 12.0 | 0.00 | 0.00 | 0.00 | 37 | 1013.0 |
| 20260507224203 | 68 | 292 | 4.0 | 12.0 | 0.00 | 0.00 | 0.00 | 38 | 1013.1 |
| 20260507223704 | 67 | 304 | 6.0 | 10.0 | 0.00 | 0.00 | 0.00 | 39 | 1013.0 |
| 20260507223203 | 66 | 307 | 6.0 | 10.0 | 0.00 | 0.00 | 0.00 | 41 | 1012.9 |
| 20260507221703 | 67 | 301 | 5.0 | 17.0 | 0.00 | 0.00 | 0.00 | 41 | 1012.9 |
| 20260507221203 | 68 | 280 | 11.0 | 17.0 | 0.00 | 0.00 | 0.00 | 38 | 1012.8 |
| 20260507220703 | 68 | 291 | 7.0 | 16.0 | 0.00 | 0.00 | 0.00 | 38 | 1012.8 |
| 20260507220203 | 68 | 312 | 7.0 | 16.0 | 0.00 | 0.00 | 0.00 | 38 | 1012.7 |
| 20260507214203 | 69 | 317 | 6.0 | 16.0 | 0.00 | 0.00 | 0.00 | 40 | 1012.5 |
| 20260507213703 | 69 | 274 | 9.0 | 16.0 | 0.00 | 0.00 | 0.00 | 40 | 1012.5 |
| 20260507213204 | 68 | 287 | 5.0 | 13.0 | 0.00 | 0.00 | 0.00 | 40 | 1012.4 |
| 20260507211704 | 66 | 319 | 7.0 | 13.0 | 0.00 | 0.00 | 0.00 | 43 | 1012.4 |
| 20260507211204 | 67 | 0 | 0.0 | 0.0 | 0.00 | 0.00 | 0.00 | 43 | 1012.4 |
| 20260507210703 | 67 | 280 | 0.0 | 8.0 | 0.00 | 0.00 | 0.00 | 43 | 1012.2 |
| 20260507210204 | 67 | 280 | 0.0 | 8.0 | 0.00 | 0.00 | 0.00 | 42 | 1012.2 |
| 20260507204706 | 66 | 280 | 0.0 | 13.0 | 0.00 | 0.00 | 0.00 | 41 | 1012.2 |
| 20260507204203 | 66 | 317 | 3.0 | 13.0 | 0.00 | 0.00 | 0.00 | 44 | 1012.2 |
| 20260507203703 | 67 | 282 | 6.0 | 14.0 | 0.00 | 0.00 | 0.00 | 45 | 1012.2 |
| 20260507203203 | 66 | 312 | 7.0 | 14.0 | 0.00 | 0.00 | 0.00 | 44 | 1012.2 |
| 20260507201703 | 65 | 297 | 7.0 | 12.0 | 0.00 | 0.00 | 0.00 | 44 | 1012.3 |
| 20260507200203 | 68 | 298 | 6.0 | 17.0 | 0.00 | 0.00 | 0.00 | 42 | 1012.3 |
| 20260507194203 | 68 | 240 | 5.0 | 14.0 | 0.00 | 0.00 | 0.00 | 46 | 1012.4 |
| 20260507193703 | 67 | 216 | 5.0 | 15.0 | 0.00 | 0.00 | 0.00 | 45 | 1012.5 |
| 20260507193205 | 67 | 288 | 9.0 | 15.0 | 0.00 | 0.00 | 0.00 | 44 | 1012.6 |
| 20260507191204 | 65 | 297 | 7.0 | 13.0 | 0.00 | 0.00 | 0.00 | 48 | 1012.8 |
| 20260507190704 | 65 | 278 | 7.0 | 13.0 | 0.00 | 0.00 | 0.00 | 47 | 1012.9 |
| 20260507190203 | 65 | 282 | 0.0 | 14.0 | 0.00 | 0.00 | 0.00 | 48 | 1012.8 |
| 20260507184704 | 64 | 303 | 5.0 | 14.0 | 0.00 | 0.00 | 0.00 | 51 | 1013.0 |
| 20260507184203 | 64 | 290 | 7.0 | 10.0 | 0.00 | 0.00 | 0.00 | 50 | 1013.1 |
| 20260507183703 | 64 | 285 | 3.0 | 13.0 | 0.00 | 0.00 | 0.00 | 51 | 1013.2 |
| 20260507183204 | 63 | 284 | 6.0 | 13.0 | 0.00 | 0.00 | 0.00 | 52 | 1013.2 |
| 20260507181703 | 65 | 294 | 7.0 | 12.0 | 0.00 | 0.00 | 0.00 | 50 | 1013.0 |
| 20260507180704 | 64 | 268 | 6.0 | 12.0 | 0.00 | 0.00 | 0.00 | 51 | 1013.2 |
| 20260507174703 | 62 | 310 | 7.0 | 13.0 | 0.00 | 0.00 | 0.00 | 54 | 1013.4 |
| 20260507174203 | 62 | 291 | 7.0 | 13.0 | 0.00 | 0.00 | 0.00 | 53 | 1013.4 |
| 20260507173703 | 62 | 311 | 7.0 | 12.0 | 0.00 | 0.00 | 0.00 | 54 | 1013.3 |
| 20260507173203 | 62 | 312 | 7.0 | 12.0 | 0.00 | 0.00 | 0.00 | 53 | 1013.3 |
| 20260507171703 | 63 | 298 | 7.0 | 13.0 | 0.00 | 0.00 | 0.00 | 54 | 1013.7 |
| 20260507171203 | 63 | 316 | 7.0 | 13.0 | 0.00 | 0.00 | 0.00 | 54 | 1013.7 |
| 20260507170704 | 63 | 302 | 7.0 | 12.0 | 0.00 | 0.00 | 0.00 | 53 | 1013.7 |
| 20260507170203 | 63 | 306 | 5.0 | 12.0 | 0.00 | 0.00 | 0.00 | 55 | 1013.7 |
| 20260507164703 | 64 | 243 | 0.0 | 8.0 | 0.00 | 0.00 | 0.00 | 54 | 1013.8 |
| 20260507164203 | 63 | 243 | 1.0 | 8.0 | 0.00 | 0.00 | 0.00 | 55 | 1013.9 |
| 20260507163704 | 62 | 297 | 3.0 | 8.0 | 0.00 | 0.00 | 0.00 | 57 | 1013.9 |
| 20260507163204 | 62 | 284 | 2.0 | 8.0 | 0.00 | 0.00 | 0.00 | 55 | 1013.9 |
| 20260507161704 | 63 | 274 | 0.0 | 7.0 | 0.00 | 0.00 | 0.00 | 56 | 1014.1 |
| 20260507161204 | 64 | 274 | 0.0 | 7.0 | 0.00 | 0.00 | 0.00 | 52 | 1014.1 |
| 20260507160204 | 62 | 27 | 2.0 | 7.0 | 0.00 | 0.00 | 0.00 | 54 | 1014.2 |
| 20260507154203 | 62 | 313 | 6.0 | 10.0 | 0.00 | 0.00 | 0.00 | 56 | 1014.3 |
| 20260507153703 | 61 | 278 | 3.0 | 9.0 | 0.00 | 0.00 | 0.00 | 57 | 1014.3 |
| 20260507153203 | 61 | 283 | 2.0 | 9.0 | 0.00 | 0.00 | 0.00 | 59 | 1014.3 |
| 20260507151704 | 61 | 329 | 2.0 | 5.0 | 0.00 | 0.00 | 0.00 | 59 | 1014.2 |
| 20260507151204 | 60 | 332 | 2.0 | 8.0 | 0.00 | 0.00 | 0.00 | 60 | 1014.3 |
| 20260507150703 | 59 | 249 | 5.0 | 8.0 | 0.00 | 0.00 | 0.00 | 59 | 1014.3 |
| 20260507150203 | 60 | 316 | 3.0 | 8.0 | 0.00 | 0.00 | 0.00 | 60 | 1014.4 |
| 20260507144203 | 63 | 32 | 0.0 | 6.0 | 0.00 | 0.00 | 0.00 | 56 | 1014.3 |
| 20260507143704 | 62 | 32 | 2.0 | 6.0 | 0.00 | 0.00 | 0.00 | 57 | 1014.4 |
| 20260507143204 | 61 | 36 | 3.0 | 7.0 | 0.00 | 0.00 | 0.00 | 59 | 1014.5 |
| 20260507141703 | 59 | 350 | 4.0 | 7.0 | 0.00 | 0.00 | 0.00 | 61 | 1014.4 |
| 20260507141203 | 60 | 181 | 1.0 | 6.0 | 0.00 | 0.00 | 0.00 | 65 | 1014.6 |
| 20260507140703 | 60 | 265 | 2.0 | 6.0 | 0.00 | 0.00 | 0.00 | 65 | 1014.7 |
| 20260507140203 | 61 | 264 | 1.0 | 3.0 | 0.00 | 0.00 | 0.00 | 65 | 1014.7 |
| 20260507134704 | 58 | 7 | 0.0 | 0.0 | 0.00 | 0.00 | 0.00 | 71 | 1014.9 |
| 20260507133203 | 57 | 7 | 0.0 | 0.0 | 0.00 | 0.00 | 0.00 | 72 | 1015.1 |
| 20260507131704 | 57 | 7 | 0.0 | 0.0 | 0.00 | 0.00 | 0.00 | 80 | 1015.1 |
| 20260507131203 | 56 | 7 | 0.0 | 0.0 | 0.00 | 0.00 | 0.00 | 82 | 1015.1 |
| 20260507130703 | 56 | 7 | 0.0 | 0.0 | 0.00 | 0.00 | 0.00 | 85 | 1015.1 |
| 20260507130203 | 56 | 7 | 0.0 | 0.0 | 0.00 | 0.00 | 0.00 | 86 | 1015.1 |
| 20260507124704 | 55 | 7 | 0.0 | 0.0 | 0.00 | 0.00 | 0.00 | 88 | 1015.1 |
| 20260507124203 | 54 | 7 | 0.0 | 0.0 | 0.00 | 0.00 | 0.00 | 89 | 1015.1 |
| 20260507123704 | 54 | 7 | 0.0 | 0.0 | 0.00 | 0.00 | 0.00 | 91 | 1015.1 |
| 20260507123203 | 54 | 7 | 0.0 | 0.0 | 0.00 | 0.00 | 0.00 | 92 | 1015.1 |